Location: Melizzano
(41.1500°N, 14.5000°E)
Time: 23:01:28
(UTC+00:00)

Cosmos 2341 Rocket - Pass Details

Date: 11 May 2021
Orbit: 968 x 1004 km, 82.9° (Epoch: 24 June)

Event Time Altitude Azimuth Distance (km) Brightness Sun altitude
Rises 21:54:49 0° 350° (N) 3,741 8.3 -28.9°
Reaches altitude 10° 21:57:22 10° 348° (NNW) 2,787 7.3 -29.1°
Maximum altitude 22:03:43 69° 267° (W) 1,072 4.1 -29.4°
Enters shadow 22:04:06 67° 243° (WSW) 1,082 4.0 -29.4°
